Location: ??????
(55.2000°N, 38.3000°E)
Time: 00:50:59
(UTC+00:00)

Cosmos 1727 Rocket - Pass Details

Date: 15 November 2025
Orbit: 961 x 995 km, 82.9° (Epoch: 12 December)

Event Time Altitude Azimuth Distance (km) Brightness Sun altitude
Exits shadow 01:07:35 58° 21° (NNE) 1,136 4.4 -32.6°
Drops below altitude 10° 01:12:33 10° 13° (NNE) 2,749 6.6 -31.9°
Sets 01:15:05 0° 12° (NNE) 3,706 7.3 -31.6°
